Simultaneous Nadir Overpasses (SNOs) Predictions

Prediction of SNOs between LANDSAT-8 and METOP-B Satellite Orbit:

Table of predicted SNOs for the next 14.0 days since TLE Epoch: 10/10/2015
Index Date (LANDSAT-8) Time (LANDSAT-8) Lat,Lon (LANDSAT-8) SZA (LANDSAT-8 ) Date (METOP-B) Time (METOP-B) Lat,Lon (METOP-B) SZA (METOP-B ) Distance(km) Time Diff (sec)
1 10/12/2015 07:19:03 -81.15, -69.37 89.16 10/12/2015 07:18:56 -81.16, -69.27 89.14 1.83 7
2 10/12/2015 08:08:28 81.18, 98.73 90.93 10/12/2015 08:09:35 81.18, 98.79 90.97 1.02 67
3 10/15/2015 02:03:50 81.15,-170.60 91.89 10/15/2015 02:02:37 81.14,-170.68 91.85 1.57 73
4 10/15/2015 02:53:16 -81.17, -2.63 88.05 10/15/2015 02:53:16 -81.16, -2.71 88.06 1.55 0
5 10/15/2015 03:42:39 81.24, 166.19 92.14 10/15/2015 03:43:53 81.21, 166.10 92.15 3.84 74
6 10/17/2015 21:38:05 81.14,-104.31 92.92 10/17/2015 21:36:58 81.14,-104.15 92.91 2.75 67
7 10/17/2015 22:27:31 -81.16, 63.69 87.02 10/17/2015 22:27:37 -81.17, 63.83 87.00 2.57 6
8 10/20/2015 17:12:19 81.15, -37.71 93.97 10/20/2015 17:11:19 81.15, -37.65 93.95 0.96 60
9 10/20/2015 18:01:45 -81.17, 130.31 85.97 10/20/2015 18:01:58 -81.17, 130.35 85.96 0.74 13
10 10/23/2015 12:46:32 81.15, 28.83 94.98 10/23/2015 12:45:39 81.15, 28.82 94.96 0.45 53




NCC Satellite Simultaneous Nadir Overpasses (SNOs) Prediction Service
